APSTAR 6

Last updated on Oct. 1, 2020, 5:42 a.m. UTC

1 28638U 05012A   20274.82124801 -.00000096  00000-0  00000-0 0  9992
2 28638   1.8914  91.0366 0003872 101.9427 275.5753  1.00273271 81478
UTC
Height (km)
Latitude
Longitude
Inclination
Orbital Period
UTC large
Height (km)
Speed (km/s)
/
Latitude / Longitude
Inclination (degrees)
Orbital Period (minutes)
Azimuth
Elevation
Range (km)
Doppler Factor
iOS Compass Heading
iOS Angle

Next 30 passes for location: Hong Kong

Rise time Rise Azimuth (degrees) Set time Set Azimuth (degrees) Duration Max altitude (degrees)

No matching passes for this satellites